Tracking 25710 objects as of 5-Jul-2022
HD Live streaming from Space Station
objects crossing your sky now

FENGYUN 1C DEB

Track FENGYUN 1C DEB now!
10-day predictions


NORAD ID: 37456
Int'l Code: 1999-025EJA
Perigee: 584.4 km
Apogee: 732.7 km
Inclination: 98.9 °
Period: 97.8 minutes
Semi major axis: 7029 km
RCS: 0.0113 m2 (small)
Launch date: May 10, 1999
Source: People's Republic of China (PRC)
Launch site: Taiyaun Space Center, China (TSC)

Note: This is SATELLITE DEBRIS
aabbcc
Your satellite tracking list
Your tracking list is empty




NASA's NSSDC Master Catalog

Two Line Element Set (TLE):
1 37456U 99025EJA 22184.61175157  .00003099  00000-0  45082-3 0  9993
2 37456  98.9047 304.8547 0105479  58.7992 302.3500 14.73018831692546
Source of the keplerian elements: AFSPC